CZ-4 DEB, 26125

Orbit data source: Space-Track

CZ-4 DEB, 26125 is space debris in SSO originally from a launch on Thu, 14 Oct 1999 UTC launched from the Taiyaun Space Center, China (TSC). Debris objects in space refer to the collection of defunct objects orbiting the Earth. Examples of debris include non-operational satellites, rocket bodies, and fragments generated from explosions, collisions, or faulty payload assembly.

Loading next visibility...
Identifier
26125, 1999-057M
Orbit
SSO
Country
Flag of CNCN / PRC
Related business
Manufacturer
Unknown
Mission
Spacecraft
Bus & Motor
Unknown
Mass
Unknown
Launch date (UTC)
1999-10-14 (26 years ago)
Launch vehicle
Unknown
Launch site
Taiyaun Space Center, China (TSC)
Object type
Payload
Rocket body
Debris
Shape & HBR
Unknown shape, 0.1 m
Radar Cross Section
Small (<0.1 m²)

Expand to show TLE details & history
Last TLE update: 13 hours ago

TLE from 13 hours ago
0 CZ-4 DEB
1 26125U 99057M   26037.09236251  .00003685  00000-0  15681-2 0  9997
2 26125  99.2302  71.5939 0237728 290.8470  89.2090 14.11821428324296
Epoch: 2026-02-06T02:13Z
TLE epoch observation values (Epoch: 2026-02-06T02:13:00.120Z)
Latitude
22.48559°
Longitude
-101.7283°
Altitude
857.567 km
Speed
7.425 km/s
True Right ascension
04h 31m 01s
True Declination
22° 21' 58"
Sunlit
Object was in daylight at epoch
Visualization orbit readout
Latitude
Unknown
Longitude
Unknown
Altitude
Unknown
Speed
Unknown
Apparent Right ascension
Unknown
Apparent Declination
Unknown
Sunlit
N/A
Visualization observer readout
Local Sidereal Time
17:45:40
Azimuth
Unknown
Elevation
Unknown
Doppler factor
Unknown
Orbital elements
Apogee altitude
1,022.179 km
Perigee altitude
678.497 km
Semi-major axis
7,228.475 km
Eccentricity
0.02377
Inclination
99.2302°
RAAN
71.5939°
Arg. of periapsis
290.847°
True anomaly
91.93299°
Mean anomaly
89.209°
Eccentric anomaly
90.57101°
Mean motion
3.53161 °/min
Orbital period
101.94 mins
BSTAR
0.0015681
Loading maneuver chart data...
Computing Atmospheric mass density...
Loading historical data...
Loading historical data...
Loading historical data...
Loading historical data...
Loading historical data...
Loading historical data...
Loading historical data...

Documentation

Showing up to 5 results
|